Lake Lanier Weather Center

Moon Phase Calendar



Lake Lanier Water Level
Online Cameras

 


      

Current Conditions in Olde Federal Pointe
9/21/2021 6:29:58 PM

74°F
Feels Like 75
Clouds
Humidity
76%
Pressure
30.06"
Wind
8 mph (NE)
Dew Point
66°F
UV Index
0/10 (Low)
Visibility
6 mi

Hourly Forecast

Date & Time Tue, Sep 21
6:00 PM
Tue, Sep 21
7:00 PM
Tue, Sep 21
8:00 PM
Tue, Sep 21
9:00 PM
Tue, Sep 21
10:00 PM
Tue, Sep 21
11:00 PM
Wed, Sep 22
12:00 AM
Wed, Sep 22
1:00 AM
Wed, Sep 22
2:00 AM
Wed, Sep 22
3:00 AM
Wed, Sep 22
4:00 AM
Wed, Sep 22
5:00 AM
Wed, Sep 22
6:00 AM
Wed, Sep 22
7:00 AM
Wed, Sep 22
8:00 AM
Wed, Sep 22
9:00 AM
Wed, Sep 22
10:00 AM
Wed, Sep 22
11:00 AM
Wed, Sep 22
12:00 PM
Wed, Sep 22
1:00 PM
Wed, Sep 22
2:00 PM
Wed, Sep 22
3:00 PM
Wed, Sep 22
4:00 PM
Wed, Sep 22
5:00 PM
Wed, Sep 22
6:00 PM
Wed, Sep 22
7:00 PM
Wed, Sep 22
8:00 PM
Wed, Sep 22
9:00 PM
Wed, Sep 22
10:00 PM
Wed, Sep 22
11:00 PM
Thu, Sep 23
12:00 AM
Thu, Sep 23
1:00 AM
Thu, Sep 23
2:00 AM
Thu, Sep 23
3:00 AM
Thu, Sep 23
4:00 AM
Thu, Sep 23
5:00 AM
Thu, Sep 23
6:00 AM
Thu, Sep 23
7:00 AM
Thu, Sep 23
8:00 AM
Thu, Sep 23
9:00 AM
Thu, Sep 23
10:00 AM
Thu, Sep 23
11:00 AM
Thu, Sep 23
12:00 PM
Thu, Sep 23
1:00 PM
Thu, Sep 23
2:00 PM
Thu, Sep 23
3:00 PM
Thu, Sep 23
4:00 PM
Thu, Sep 23
5:00 PM
Condition
Clouds

Clouds

Clouds

Clouds

Clouds

Clouds

Clouds

Clouds

Clouds

Clouds

Clouds

Clouds

Clouds

Clouds

Rain

Rain

Rain

Rain

Rain

Rain

Rain

Clouds

Clouds

Clouds

Clouds

Clouds

Clouds

Clear

Clear

Clear

Clear

Clear

Clear

Clear

Clear

Clear

Clear

Clear

Clear

Clear

Clear

Clear

Clear

Clear

Clear

Clear

Clear

Clear
Temperature 74°F73°F71°F70°F68°F67°F67°F67°F66°F66°F66°F66°F66°F65°F66°F67°F68°F69°F69°F69°F67°F67°F71°F72°F70°F66°F63°F60°F59°F57°F55°F54°F52°F52°F52°F52°F51°F49°F49°F53°F59°F63°F67°F69°F71°F71°F71°F70°F
Feels Like 75°F74°F72°F71°F69°F68°F68°F68°F67°F67°F67°F67°F67°F66°F67°F68°F69°F70°F70°F70°F68°F67°F71°F72°F70°F66°F63°F60°F58°F56°F54°F52°F50°F50°F50°F50°F49°F47°F46°F52°F57°F61°F65°F68°F69°F70°F69°F69°F
Cloudiness 75%80%85%90%95%100%100%100%98%82%88%87%90%92%93%98%99%99%99%100%100%84%75%50%39%31%26%0%0%0%0%0%0%0%0%0%0%0%0%0%0%0%0%0%0%0%0%0%
Visibility 6 mi6 mi6 mi6 mi6 mi6 mi6 mi6 mi6 mi6 mi6 mi6 mi6 mi6 mi2 mi0 mi0 mi4 mi6 mi6 mi6 mi6 mi6 mi6 mi6 mi6 mi6 mi6 mi6 mi6 mi6 mi6 mi6 mi6 mi6 mi6 mi6 mi6 mi6 mi6 mi6 mi6 mi6 mi6 mi6 mi6 mi6 mi6 mi
Precipitation 1%1%1%0%0%0%3%6%6%0%0%4%7%10%25%81%93%94%100%100%100%11%7%2%3%2%2%0%0%0%0%0%0%0%0%0%0%0%0%0%0%0%0%0%0%0%0%0%
Humidity 76%80%84%88%92%96%96%97%97%98%98%98%98%99%99%98%98%97%98%96%92%83%65%58%61%70%75%77%76%73%71%71%73%72%70%70%71%76%81%70%56%46%39%35%33%33%34%40%
Dew Point 66°F66°F66°F66°F66°F65°F65°F65°F65°F65°F65°F65°F65°F65°F65°F66°F67°F67°F67°F67°F64°F62°F58°F56°F56°F56°F55°F53°F51°F48°F46°F44°F43°F43°F42°F42°F42°F42°F43°F44°F43°F42°F41°F40°F40°F40°F41°F45°F
Pressure 30.06"30.06"30.06"30.03"30.06"30.03"30.03"30"30"29.97"29.94"29.94"29.94"29.91"29.94"29.94"29.91"29.91"29.91"29.91"29.91"29.91"29.88"29.88"29.88"29.91"29.94"29.97"30"30"30"30"30"30"29.97"29.97"29.97"30"30"30"30.03"30.03"30.03"30"30"29.97"29.97"29.97"
Wind Speed 6.2 mph5.3 mph5.6 mph5.6 mph5.1 mph4.7 mph3.7 mph4.2 mph3.1 mph3.1 mph3 mph3 mph3.2 mph3.2 mph2.8 mph3.4 mph3 mph4.5 mph5 mph7.1 mph8.4 mph8.1 mph10.6 mph11.5 mph10.5 mph9.5 mph10.1 mph8.3 mph9.5 mph9.3 mph9 mph8.5 mph7.8 mph9.1 mph9.4 mph9 mph7.3 mph6.2 mph5.4 mph6.2 mph7.1 mph6.8 mph7.2 mph7.8 mph8.9 mph9.8 mph10 mph9.6 mph
Wind
Direction
80°
E
80°
E
78°
ENE
76°
ENE
71°
ENE
72°
ENE
63°
ENE
80°
E
58°
ENE
74°
ENE
84°
E
91°
E
102°
ESE
120°
ESE
163°
SSE
174°
S
191°
S
225°
SW
243°
WSW
274°
W
318°
NW
332°
NNW
310°
NW
311°
NW
308°
NW
316°
NW
329°
NNW
322°
NW
327°
NNW
332°
NNW
323°
NW
315°
NW
305°
NW
310°
NW
320°
NW
322°
NW
320°
NW
316°
NW
311°
NW
325°
NW
331°
NNW
333°
NNW
333°
NNW
330°
NNW
327°
NNW
325°
NW
323°
NW
323°
NW

Daily Forecast

Date High Low Precip. Humidity
Today
Sep 21

Rain
74 °F
67 °F
97%
95%
Wednesday
Sep 22

Rain
72 °F
57 °F
100%
96%
Thursday
Sep 23

Clear
71 °F
49 °F
0%
33%
Friday
Sep 24

Clear
73 °F
50 °F
0%
41%
Saturday
Sep 25

Clouds
76 °F
53 °F
0%
40%
Sunday
Sep 26

Clear
82 °F
56 °F
0%
36%
Monday
Sep 27

Clear
84 °F
60 °F
0%
38%
Tuesday
Sep 28

Clouds
84 °F
61 °F
0%
39%
Wednesday
Sep 29

Clouds
82 °F
62 °F
0%
43%
Thursday
Sep 30

Clouds
82 °F
63 °F
0%
52%
Friday
Oct 1

Clouds
82 °F
63 °F
0%
50%
Saturday
Oct 2

Clouds
79 °F
66 °F
11%
57%
Sunday
Oct 3

Clouds
81 °F
63 °F
0%
46%
Monday
Oct 4

Clouds
83 °F
62 °F
0%
44%
Tuesday
Oct 5

Clear
85 °F
65 °F
6%
45%
Wednesday
Oct 6

Clouds
82 °F
65 °F
35%
49%

Temperature 8-14 Day Outlook



Precipitation 8-14 Day Outlook




Quick Links
Lake Lanier News
Lake Lanier Photos
Lake Lanier Videos




About Us
Contact Us
Site Map
Search Site
Advertise With Us
   
www.DiscoverLanier.com
THE LAKE LANIER WEBSITE

Copyright 2021, Lakes Online
Privacy    |    Legal